Theta_e
286 286 288 290 293 293 293 293 295 297 297 299 303 304 303 303 305 306 306 308 314 320 328 338 335 333 331 329 327 326 324 325 324 322 320 320 317 317 314 311 312 312 311
286 286 285 287 288 290 292 293 293 295 296 298 300 303 302 302 303 304 304 305 309 314 320 336 332 330 331 329 327 325 323 325 323 321 320 318 316 315 313 311 311 310 311
286 285 285 285 286 288 292 292 292 293 295 296 297 301 301 301 301 302 303 303 304 307 312 319 327 330 330 328 327 325 326 325 322 319 318 317 314 315 313 311 310 311 310
287 285 284 284 286 287 290 290 290 291 293 293 294 296 300 300 300 301 302 302 302 303 306 313 314 328 328 327 326 327 325 323 321 319 318 316 315 313 311 311 308 310 310
286 285 284 284 285 285 287 288 289 290 291 291 292 295 299 298 298 299 300 300 301 301 302 307 308 317 326 326 326 326 325 323 320 317 317 315 313 314 312 310 311 311 310
285 284 283 284 284 284 285 287 288 290 290 290 290 292 294 298 298 297 298 299 300 300 301 302 303 303 320 324 326 326 324 322 320 318 316 314 313 312 311 310 310 310 310
283 282 282 282 283 283 283 285 286 287 288 291 288 289 295 297 296 296 297 297 298 299 300 300 301 302 303 314 324 325 324 323 320 317 316 314 313 311 309 308 308 308 309
282 282 280 281 281 282 283 283 285 286 287 290 287 287 288 294 296 296 296 297 296 297 298 299 300 300 301 302 309 321 323 322 320 318 315 313 311 309 308 307 307 307 308
281 280 279 280 280 281 281 282 284 284 284 287 290 286 282 283 286 295 295 295 296 296 296 298 299 299 300 300 302 305 319 320 318 316 314 311 309 307 306 305 306 307 307
279 279 279 279 279 280 280 282 284 284 285 284 287 289 288 286 285 288 294 294 295 295 295 296 296 298 298 299 300 302 304 308 310 310 309 307 306 305 305 305 305 306 306
278 278 278 278 278 279 279 280 282 283 285 284 285 286 287 287 287 286 288 291 294 294 296 296 296 296 297 298 299 300 302 304 304 304 304 305 304 304 303 303 304 304 304
276 276 276 277 277 278 278 280 281 283 283 285 285 286 286 284 283 285 286 288 289 292 295 296 295 295 296 296 298 299 301 302 301 301 301 301 301 301 301 302 302 302 302
273 273 274 275 276 277 278 279 281 282 282 283 284 285 287 287 287 287 286 286 287 290 291 294 295 295 296 296 296 295 298 300 300 299 299 299 299 298 298 299 300 301 300
271 273 273 275 276 277 278 279 282 282 282 283 284 285 285 287 287 287 286 285 285 286 288 289 294 294 294 294 294 294 295 296 298 298 297 297 297 296 297 297 298 298 298
272 272 273 274 276 277 278 279 280 280 282 282 283 284 285 286 287 287 287 287 286 285 286 287 288 294 293 293 292 292 292 294 295 295 295 295 295 295 295 295 296 296 296
271 272 273 274 275 277 278 279 280 280 281 282 283 283 283 284 285 286 286 287 288 287 286 290 290 293 293 292 291 291 291 291 292 293 293 293 293 292 292 293 293 294 295
270 272 273 274 275 276 277 279 279 280 280 281 282 282 283 284 283 285 286 287 287 287 286 287 290 290 290 290 289 289 289 288 289 291 292 291 291 291 291 291 292 293 293
270 271 272 273 274 275 276 279 278 280 280 280 281 281 282 283 282 284 285 285 286 287 287 285 286 285 286 287 288 287 288 288 286 290 291 290 290 290 289 290 291 291 292
268 270 271 271 272 274 276 279 279 279 280 279 280 280 280 281 280 283 285 285 285 287 287 285 285 285 285 285 285 285 285 285 287 289 290 289 290 289 289 289 290 290 292
267 268 269 270 271 274 278 279 278 278 278 279 280 279 279 280 280 283 285 285 285 284 285 285 285 284 284 284 285 284 283 285 284 285 286 288 287 287 288 288 289 290 291
264 264 267 268 270 274 279 279 277 277 276 277 279 279 278 280 282 285 285 285 284 284 284 285 284 284 283 283 283 284 283 281 282 282 282 283 282 282 283 285 287 290 292
261 262 265 267 269 273 281 281 278 276 276 275 275 276 277 279 280 284 287 288 286 284 282 283 283 283 283 284 285 283 282 281 278 282 282 280 281 279 280 283 289 291 293
260 262 263 267 267 270 280 280 278 275 275 274 274 275 276 278 279 283 286 287 286 287 287 284 282 282 282 283 284 283 283 282 280 282 283 279 281 279 279 280 290 292 292
260 263 264 265 267 269 278 279 277 275 275 274 274 274 275 276 278 283 284 284 285 284 284 284 283 284 284 284 284 284 282 281 281 282 283 279 279 278 278 278 288 290 292
264 263 266 265 266 267 276 279 276 274 274 273 273 273 274 276 281 285 284 283 284 284 285 286 286 285 285 286 286 284 281 280 279 280 281 280 279 278 278 280 281 287 289
266 268 268 266 266 267 273 278 277 273 272 272 271 272 275 277 282 284 283 283 282 282 282 281 281 282 282 281 282 280 281 281 279 278 281 279 278 277 276 280 281 282 282
Wind_Speed
9 9 9 9 10 11 11 13 13 13 16 15 15 12 11 12 12 8 7 20 22 22 15 26 35 31 29 26 25 23 22 21 21 20 18 16 13 11 9 7 2 1 1
8 9 9 10 10 11 12 13 13 14 13 14 15 12 10 10 11 11 8 10 21 23 24 11 29 28 28 27 26 23 21 23 22 20 18 16 13 12 9 6 2 1 4
10 10 9 9 10 10 14 12 14 15 12 13 15 13 9 9 9 9 9 9 10 16 21 21 10 27 29 29 28 26 23 23 22 20 17 15 12 11 9 7 5 2 2
12 10 8 9 11 10 10 12 13 13 12 12 12 11 8 6 9 9 7 7 9 9 12 21 22 19 29 29 28 28 26 24 22 21 19 15 13 11 8 7 4 3 6
12 9 8 9 12 10 10 11 12 12 12 15 13 11 8 4 6 7 8 8 11 10 8 15 27 9 24 26 27 27 28 26 24 20 19 16 12 11 9 6 4 3 2
13 11 9 10 10 10 10 12 15 13 13 13 14 10 9 2 3 4 7 7 8 10 9 10 13 13 2 22 25 27 27 26 24 22 20 16 13 10 7 4 1 2 2
12 11 9 10 11 10 12 14 13 16 12 13 12 12 5 1 3 4 4 6 9 9 10 10 9 8 10 22 21 26 27 26 24 22 19 17 13 9 6 2 1 2 4
11 10 10 10 11 10 13 14 15 12 9 12 9 8 7 3 8 5 5 6 8 6 8 10 9 9 10 8 18 12 26 28 27 24 20 16 11 8 4 0 2 4 5
10 10 11 10 11 9 9 12 14 15 11 12 11 6 6 5 11 2 4 4 6 6 6 6 7 8 9 9 14 20 8 24 24 23 18 13 9 6 4 2 4 5 6
9 9 11 10 10 9 11 11 12 12 11 11 10 7 5 5 5 5 2 2 4 6 6 5 5 6 8 7 14 18 20 23 23 20 15 12 9 6 5 4 4 6 7
8 9 11 11 11 9 11 12 14 14 10 8 9 10 10 8 4 4 5 6 1 4 4 4 5 5 6 7 7 11 18 17 15 14 13 13 9 7 6 5 5 6 8
7 10 12 10 10 10 12 11 13 14 12 10 9 10 8 7 10 5 4 7 4 2 2 2 3 4 6 6 8 12 14 15 14 12 11 10 8 7 6 6 7 7 8
8 10 12 12 10 12 11 11 12 13 11 11 11 10 9 7 6 5 5 6 2 2 2 2 2 3 4 4 5 9 11 12 10 10 9 9 8 7 6 7 7 8 8
7 10 10 10 10 11 11 10 10 9 11 11 13 12 10 9 8 7 5 6 4 1 3 4 3 2 3 3 5 8 6 11 12 11 10 8 8 6 6 7 7 8 8
8 9 10 10 10 11 11 11 8 10 12 12 12 12 10 9 9 8 7 5 4 3 2 3 3 2 4 3 4 4 4 7 8 7 7 6 5 5 6 5 6 6 8
8 10 10 10 10 10 11 10 9 10 12 11 10 14 12 11 10 9 8 7 5 4 2 2 1 2 4 4 5 5 5 8 9 8 7 5 7 6 5 4 6 7 9
9 10 11 10 10 10 11 10 10 12 13 14 14 12 14 13 10 10 9 8 5 4 3 1 2 4 2 6 5 6 5 4 4 8 8 7 7 5 4 5 7 9 11
9 9 10 10 9 10 10 11 12 12 12 13 14 14 14 12 14 13 9 10 7 6 3 2 2 2 4 3 4 6 4 4 3 4 7 4 4 5 5 7 9 10 10
7 9 9 10 10 10 10 10 11 10 10 12 13 13 14 14 14 13 11 9 8 5 3 2 1 1 2 2 3 3 3 3 3 4 5 3 5 5 6 7 10 10 10
5 7 7 8 8 9 10 8 10 10 11 10 12 11 13 14 15 16 12 11 10 8 5 2 1 2 2 2 1 2 3 2 2 2 5 5 7 9 9 10 11 9 10
4 5 6 7 8 8 9 10 9 9 10 11 11 10 12 16 25 23 11 11 11 8 6 4 2 1 1 1 0 2 3 2 3 2 2 3 3 3 5 7 6 9 10
4 4 6 6 8 8 18 18 15 10 10 10 12 12 13 15 20 26 23 20 14 11 9 6 4 4 4 2 2 2 4 2 2 2 2 3 3 3 4 5 10 10 11
4 5 6 7 7 9 21 18 19 9 10 9 10 11 12 12 16 16 18 16 11 15 14 7 7 5 4 4 1 2 2 2 2 1 4 4 2 2 4 5 11 10 11
4 4 5 6 6 7 20 19 16 8 8 8 9 10 12 14 16 18 13 11 8 7 8 6 7 7 6 4 3 3 3 4 2 2 1 3 2 2 3 4 11 11 12
3 3 4 6 8 8 20 21 12 8 8 8 8 9 11 13 22 24 12 11 8 7 8 13 15 16 16 17 10 2 3 1 1 1 3 3 0 1 2 4 4 10 12
3 3 5 4 5 8 18 22 18 7 8 7 7 8 15 17 21 22 11 10 8 8 7 7 8 10 11 11 14 6 3 2 2 2 2 4 1 1 3 2 4 4 4
Wind_Direction
352 350 345 341 341 338 335 333 331 330 328 324 319 324 324 324 322 328 328 333 358 4 341 200 169 165 171 171 175 176 172 179 166 158 154 151 147 136 147 169 237 185 335
353 354 348 343 339 335 333 335 334 331 329 324 319 328 325 326 319 330 346 331 355 9 0 191 158 171 172 166 172 175 183 171 157 145 143 141 146 143 152 177 224 178 266
358 356 345 342 337 329 336 338 336 340 332 329 329 325 326 331 319 331 348 340 346 5 14 7 213 178 170 171 175 180 173 164 151 149 150 151 153 156 158 163 218 253 243
2 353 343 340 334 336 340 342 340 336 332 336 326 319 311 331 330 344 350 347 351 348 10 15 3 197 174 173 179 163 161 156 152 150 148 150 150 158 165 166 199 245 273
360 353 344 336 338 343 346 343 339 334 328 339 328 318 317 324 341 349 357 356 1 349 359 2 21 307 175 173 175 171 157 157 156 156 147 152 154 153 154 182 196 215 261
360 354 347 341 345 347 343 340 336 338 337 336 328 324 306 348 352 11 352 356 9 358 7 357 37 1 216 176 174 165 161 157 155 150 152 152 150 151 151 146 119 84 331
3 355 350 345 348 348 336 342 343 338 342 344 338 341 314 70 33 27 1 17 7 356 9 11 32 9 15 30 190 170 163 157 153 149 151 143 143 145 137 152 277 324 335
357 356 349 346 347 341 341 347 350 344 337 347 344 328 346 324 19 22 23 14 4 348 16 17 17 23 23 19 38 152 166 159 150 146 140 132 127 130 115 34 325 327 333
355 357 352 350 344 344 340 338 349 350 340 341 2 356 341 341 326 9 21 20 357 358 5 18 10 24 27 26 29 33 145 147 134 127 120 119 116 111 103 36 351 350 337
351 353 352 350 347 340 341 339 343 346 349 338 342 352 329 295 338 320 18 357 354 11 353 2 11 36 38 37 45 50 51 64 85 94 101 98 92 88 69 42 21 355 0
349 349 354 347 348 344 338 338 342 349 348 339 341 337 346 346 7 308 332 346 336 30 334 350 3 21 51 53 51 60 72 76 79 89 101 98 88 76 61 29 21 20 357
343 347 350 346 344 340 340 338 337 344 343 341 339 347 345 355 342 330 315 322 337 350 327 356 9 25 32 47 62 72 81 88 87 84 83 91 87 68 52 36 20 10 10
344 341 347 341 343 336 334 335 340 344 344 341 339 343 341 348 328 320 303 323 294 278 332 34 36 37 57 46 58 65 70 85 95 97 93 89 83 69 43 30 12 18 9
337 336 335 333 335 331 330 337 344 339 346 346 341 345 341 344 341 337 315 324 310 326 347 356 14 68 76 56 67 69 63 72 69 69 69 66 68 58 41 27 17 23 8
340 345 331 332 336 335 332 332 341 347 350 352 354 351 346 343 341 335 327 323 320 330 333 10 2 67 78 86 79 54 71 102 98 91 83 71 62 55 48 25 34 17 4
344 338 337 338 340 337 332 339 347 353 354 355 356 355 352 349 343 338 337 333 332 315 290 2 99 42 113 106 104 87 67 69 90 92 96 90 76 60 48 40 33 19 15
351 343 338 339 341 337 334 345 352 358 358 355 356 351 353 350 344 341 341 342 333 340 320 336 53 14 87 125 115 103 92 72 56 77 76 76 69 66 62 37 24 23 20
354 343 343 342 343 336 334 344 2 358 358 357 354 353 352 351 347 346 345 341 335 334 306 315 30 46 58 75 116 111 102 86 62 82 99 107 108 66 54 35 26 26 18
356 351 351 348 342 333 329 348 2 350 350 358 354 352 343 348 346 341 343 341 346 323 325 312 22 57 86 68 84 74 80 82 79 54 85 65 50 69 58 39 35 21 13
357 353 345 339 335 322 333 360 7 357 352 352 353 352 341 346 343 339 346 349 346 342 342 341 18 49 61 66 74 107 103 68 91 52 72 69 58 50 38 37 29 12 15
349 349 340 348 341 336 341 13 17 357 356 352 346 354 344 341 348 349 350 353 350 356 359 353 24 31 59 79 202 105 98 97 58 72 62 34 38 22 10 11 11 17 21
349 2 3 350 349 353 354 14 18 358 4 357 351 350 343 344 345 344 349 355 3 8 7 8 11 32 18 32 40 105 120 138 97 354 87 51 32 13 344 350 28 22 26
339 358 358 360 348 344 6 19 17 1 357 357 355 350 346 343 341 341 346 345 359 11 24 16 30 19 5 360 6 78 74 60 79 79 120 76 356 32 355 345 35 30 39
340 348 356 355 344 341 357 12 22 5 356 357 351 353 347 339 337 342 345 345 2 4 19 20 29 23 17 354 17 57 81 94 86 82 89 83 354 13 351 5 23 39 45
360 344 354 354 356 335 356 1 31 9 352 355 350 351 343 336 336 350 352 348 358 13 5 29 48 45 39 40 34 98 111 126 155 41 31 105 335 33 25 18 358 34 44
22 6 1 347 331 338 344 8 16 4 347 354 351 353 347 338 348 0 1 352 15 12 11 8 26 33 33 30 33 25 332 151 131 116 15 86 109 129 45 25 8 10 4